PBO Station Position Time Series. Reference Frame : NAM14
Format Version,1.1.0
4-character ID,P369
Station name,WildSafariOR2005
Begin Date, 2005-08-13
End Date, 2020-05-26
Release Date, 2021-08-28
Reference position, 43.1401049606 North Latitude, -123.4294602752 East Longitude, 190.04305 meters elevation,
Date, North (mm), East (mm), Vertical (mm), North Std. Deviation (mm), East Std. Deviation (mm),              Vertical Std. Deviation (mm), Quality,
2005-08-13,0.00, 0.00, 0.00, 2.23, 1.63, 7.39, repro,
2005-08-14,1.07, -0.60, 2.84, 2.28, 1.70, 7.56, repro,
2005-08-15,0.60, -0.05, 3.16, 2.28, 1.69, 7.46, repro,
2005-08-16,0.63, 0.02, -4.52, 2.26, 1.65, 7.44, repro,
2005-08-17,1.05, 1.04, 1.87, 2.29, 1.66, 7.61, repro,
2005-08-18,1.02, 0.29, 3.46, 2.26, 1.63, 7.44, repro,
2005-08-19,0.85, 0.56, 4.02, 2.19, 1.58, 7.20, repro,
2005-08-20,1.44, 0.30, 2.86, 2.24, 1.62, 7.36, repro,
2005-08-21,0.60, 0.56, -3.53, 2.20, 1.59, 7.29, repro,
2005-08-22,1.41, -0.16, -0.03, 2.23, 1.62, 7.43, repro,
2005-08-23,1.53, 2.30, 0.65, 2.20, 1.58, 7.27, repro,
2005-08-24,0.38, -0.52, -1.62, 2.21, 1.59, 7.25, repro,
2005-08-25,1.36, -0.99, -3.39, 2.19, 1.56, 7.19, repro,
2005-08-26,2.09, -0.03, -1.60, 2.19, 1.57, 7.26, repro,
2005-08-27,1.68, -0.43, 1.23, 2.34, 1.66, 7.55, repro,
2005-08-28,0.89, -0.49, -4.59, 2.17, 1.57, 7.18, repro,
2005-08-29,0.89, 0.46, -1.78, 2.23, 1.63, 7.36, repro,
2005-08-30,1.19, -0.42, 1.65, 2.19, 1.57, 7.15, repro,
2005-08-31,1.34, 0.45, -1.85, 2.24, 1.62, 7.37, repro,
2005-09-01,1.18, -0.33, 0.70, 2.18, 1.57, 7.20, repro,
2005-09-02,2.99, -0.65, -1.91, 2.19, 1.57, 7.25, repro,
2005-09-03,0.16, 0.48, 0.59, 2.18, 1.58, 7.17, repro,
2005-09-04,1.41, -0.49, 6.31, 2.26, 1.61, 7.35, repro,
2005-09-05,1.70, 1.22, -1.93, 2.19, 1.57, 7.15, repro,
2005-09-06,0.30, -1.28, -4.27, 2.18, 1.57, 7.21, repro,
2005-09-07,1.02, -1.32, -5.67, 2.32, 1.64, 7.54, repro,
2005-09-08,1.47, 0.29, -2.50, 2.26, 1.58, 7.31, repro,
2005-09-09,0.71, 1.09, -0.82, 2.39, 1.68, 7.71, repro,
2005-09-10,3.23, 0.70, -4.71, 2.29, 1.60, 7.44, repro,
2005-09-11,2.39, 0.96, -10.24, 2.35, 1.62, 7.50, repro,
2005-09-12,1.09, 0.07, -10.19, 2.26, 1.59, 7.34, repro,
2005-09-13,1.49, -0.06, -2.62, 2.38, 1.67, 7.67, repro,
2005-09-14,1.41, -0.01, -6.31, 2.32, 1.63, 7.50, repro,
2005-09-15,1.89, -1.75, -7.03, 2.30, 1.62, 7.49, repro,
2005-09-16,0.80, -1.41, -0.00, 2.30, 1.64, 7.51, repro,
2005-09-17,0.30, -2.69, -1.26, 2.17, 1.57, 7.15, repro,
2005-09-18,1.00, -1.79, -7.03, 2.16, 1.56, 7.15, repro,
2005-09-19,1.05, -1.80, -7.95, 2.27, 1.58, 7.46, repro,
2005-09-20,0.98, -1.52, -9.15, 2.20, 1.57, 7.21, repro,
2005-09-21,0.35, -2.41, -4.41, 2.24, 1.61, 7.45, repro,
2005-09-22,1.00, -2.35, -10.30, 2.18, 1.57, 7.18, repro,
2005-09-23,0.36, -1.56, -5.61, 2.21, 1.59, 7.32, repro,
2005-09-24,0.72, -2.45, -9.97, 2.22, 1.60, 7.34, repro,
2005-09-25,-0.25, -0.96, -3.06, 2.22, 1.61, 7.34, repro,
2005-09-26,1.27, -1.71, 0.25, 2.24, 1.61, 7.43, repro,
2005-09-27,1.21, -2.30, -1.99, 2.23, 1.62, 7.38, repro,
2005-09-28,0.36, -2.30, -4.31, 2.27, 1.59, 7.32, repro,
2005-09-29,0.68, -2.89, -1.53, 2.25, 1.60, 7.31, repro,
2005-09-30,-1.95, -3.42, 7.34, 2.22, 1.59, 7.30, repro,
2005-10-01,-0.33, -4.85, 5.42, 2.22, 1.57, 7.28, repro,
2005-10-02,-0.49, -2.08, 0.80, 2.21, 1.60, 7.27, repro,
2005-10-03,-0.30, -2.38, -5.30, 2.24, 1.62, 7.39, repro,
2005-10-04,0.72, -2.80, -11.46, 2.27, 1.65, 7.56, repro,
2005-10-05,1.33, -2.28, -9.41, 2.26, 1.60, 7.41, repro,
2005-10-06,-0.31, -2.81, -5.17, 2.18, 1.56, 7.14, repro,
2005-10-07,1.26, -3.47, 3.51, 2.21, 1.56, 7.17, repro,
2005-10-08,0.36, -2.29, 0.99, 2.24, 1.63, 7.33, repro,
2005-10-09,1.62, -2.55, -6.32, 2.19, 1.57, 7.17, repro,
2005-10-10,-0.25, -3.01, -6.34, 2.19, 1.57, 7.18, repro,
2005-10-11,0.34, -2.67, 3.90, 2.24, 1.63, 7.38, repro,
2005-10-12,-0.64, -2.31, -2.36, 2.22, 1.60, 7.24, repro,
2005-10-13,1.59, -2.78, -5.66, 2.22, 1.62, 7.38, repro,
2005-10-14,2.02, -4.50, -5.76, 2.21, 1.57, 7.22, repro,
2005-10-15,0.32, -0.96, -3.26, 2.37, 1.71, 7.84, repro,
2005-10-16,1.37, -2.16, 1.01, 2.26, 1.60, 7.59, repro,
2005-10-17,0.78, -1.25, -2.45, 2.20, 1.59, 7.25, repro,
2005-10-18,-0.32, -2.03, -2.19, 2.33, 1.72, 7.74, repro,
2005-10-19,0.94, -2.41, -6.08, 2.28, 1.65, 7.52, repro,
2005-10-20,0.68, -1.95, -5.28, 2.25, 1.59, 7.28, repro,
2005-10-21,1.05, -2.66, -3.99, 2.34, 1.66, 7.67, repro,
2005-10-22,1.26, -2.09, -5.61, 2.19, 1.57, 7.15, repro,
2005-10-23,0.81, -2.72, -4.29, 2.20, 1.58, 7.19, repro,
2005-10-24,2.08, -2.21, -2.05, 2.22, 1.60, 7.27, repro,
2005-10-25,1.98, -3.33, 0.51, 2.25, 1.63, 7.43, repro,
2005-10-26,0.38, -3.67, 4.09, 2.32, 1.69, 7.67, repro,
2005-10-27,1.78, -3.14, -1.85, 2.25, 1.65, 7.53, repro,
2005-10-28,0.38, -1.39, 7.47, 2.20, 1.57, 7.22, repro,
2005-10-29,0.12, -2.15, 3.31, 2.22, 1.62, 7.45, repro,
2005-10-30,1.72, -2.80, -3.16, 2.21, 1.59, 7.26, repro,
2005-10-31,2.41, -1.97, -3.52, 2.32, 1.68, 7.60, repro,
2005-11-01,2.65, -0.91, -6.65, 2.34, 1.69, 7.65, repro,
2005-11-02,2.16, -1.27, -4.18, 2.34, 1.76, 7.84, repro,
2005-11-03,1.42, -2.76, 3.02, 2.24, 1.63, 7.36, repro,
2005-11-04,1.92, -1.17, 1.38, 2.30, 1.68, 7.60, repro,
2005-11-05,0.21, -2.32, 0.89, 2.31, 1.69, 7.61, repro,
2005-11-06,1.79, -3.04, -2.40, 2.27, 1.67, 7.46, repro,
2005-11-07,2.22, -3.34, -4.86, 2.33, 1.74, 7.73, repro,
2005-11-08,1.98, -2.07, -9.99, 2.26, 1.68, 7.50, repro,
2005-11-09,2.48, -1.62, -11.49, 2.36, 1.79, 7.91, repro,
2005-11-10,1.13, -0.73, -6.18, 2.49, 1.81, 8.14, repro,
2005-11-11,2.92, -2.86, 0.83, 2.40, 1.70, 7.90, repro,
2005-11-12,-0.27, -1.17, 2.05, 2.19, 1.62, 7.27, repro,
2005-11-13,2.52, -1.27, -10.98, 2.36, 1.76, 7.76, repro,
2005-11-14,1.90, -1.41, -16.37, 2.22, 1.63, 7.33, repro,
2005-11-15,1.37, -2.01, -15.50, 2.19, 1.57, 7.21, repro,
2005-11-16,1.60, -2.27, -20.37, 2.23, 1.61, 7.36, repro,
2005-11-17,1.25, -1.61, -17.69, 2.20, 1.58, 7.27, repro,
2005-11-18,0.98, -1.51, -14.46, 2.20, 1.58, 7.27, repro,
2005-11-19,0.57, -1.68, -10.71, 2.17, 1.57, 7.19, repro,
2005-11-20,1.04, -0.82, -10.62, 2.25, 1.61, 7.44, repro,
2005-11-21,0.35, -2.59, -9.75, 2.29, 1.64, 7.56, repro,
2005-11-22,0.16, -2.46, -5.96, 2.30, 1.67, 7.63, repro,
2005-11-23,0.04, -1.93, -6.77, 2.24, 1.62, 7.46, repro,
2005-11-24,-0.13, -0.54, -5.13, 2.19, 1.58, 7.26, repro,
2005-11-25,-0.85, -1.86, -3.04, 2.19, 1.59, 7.27, repro,
2005-11-26,0.71, -2.93, -3.84, 2.27, 1.65, 7.57, repro,
2005-11-27,-0.43, -1.46, -4.93, 2.24, 1.64, 7.47, repro,
2005-11-28,1.99, -1.81, -13.22, 2.30, 1.67, 7.70, repro,
2005-11-29,1.65, -1.67, -8.08, 2.19, 1.60, 7.26, repro,
2005-11-30,1.47, -1.21, -11.15, 2.22, 1.64, 7.43, repro,
2005-12-01,1.10, -1.73, -12.20, 2.18, 1.59, 7.21, repro,
2005-12-02,-1.95, -2.56, -9.27, 2.21, 1.60, 7.31, repro,
2005-12-03,0.09, -1.25, -8.08, 2.22, 1.60, 7.32, repro,
2005-12-04,0.65, -1.31, -19.41, 2.18, 1.56, 7.16, repro,
2005-12-05,0.81, -1.20, -22.12, 2.19, 1.58, 7.19, repro,
2005-12-06,-0.14, -0.57, -16.49, 2.18, 1.56, 7.13, repro,
2005-12-07,1.03, -1.12, -13.15, 2.22, 1.62, 7.33, repro,
2005-12-08,0.54, -1.99, -7.12, 2.25, 1.64, 7.39, repro,
2005-12-09,0.49, -1.40, -18.96, 2.21, 1.59, 7.25, repro,
2005-12-10,0.42, -1.39, -18.56, 2.19, 1.58, 7.19, repro,
2005-12-11,0.56, -1.42, -14.13, 2.19, 1.56, 7.17, repro,
2005-12-12,1.12, -1.37, -12.46, 2.20, 1.59, 7.28, repro,
2005-12-13,0.50, -2.45, -12.78, 2.18, 1.55, 7.12, repro,
2005-12-14,1.42, -1.60, -17.52, 2.21, 1.59, 7.27, repro,
2005-12-15,2.38, -2.23, -20.05, 2.26, 1.61, 7.37, repro,
2005-12-16,1.01, -1.74, -10.96, 2.17, 1.55, 7.08, repro,
2005-12-17,1.26, -2.66, -11.90, 2.25, 1.63, 7.28, repro,
2005-12-18,0.83, -2.29, -14.55, 2.20, 1.61, 7.24, repro,
2005-12-19,0.86, -0.54, -12.07, 2.31, 1.71, 7.55, repro,
2005-12-20,3.35, -2.73, -13.58, 2.25, 1.69, 7.43, repro,
2005-12-21,1.14, -2.63, -10.70, 2.23, 1.68, 7.36, repro,
2005-12-22,2.52, -3.59, -10.78, 2.22, 1.67, 7.30, repro,
2005-12-23,1.82, -2.74, -14.62, 2.31, 1.69, 7.53, repro,
2005-12-24,2.49, -3.92, -13.95, 2.39, 1.83, 8.07, repro,
2005-12-25,1.56, -1.64, -13.32, 2.26, 1.67, 7.40, repro,
2005-12-26,2.84, -2.94, -9.22, 2.24, 1.60, 7.19, repro,
2005-12-27,0.03, -2.52, -7.94, 2.27, 1.69, 7.47, repro,
2005-12-28,0.59, -3.08, -19.60, 2.21, 1.60, 7.13, repro,
2005-12-29,0.10, -0.78, -17.32, 2.33, 1.73, 7.76, repro,
2005-12-30,0.41, -1.60, -17.74, 2.38, 1.79, 8.00, repro,
2005-12-31,1.64, -1.33, -4.58, 2.36, 1.76, 7.80, repro,
2006-01-01,2.00, -1.86, -3.52, 2.34, 1.73, 7.77, repro,
2006-01-02,3.28, -3.04, -9.82, 2.20, 1.58, 7.07, repro,
2006-01-03,1.53, -1.79, -13.36, 2.44, 1.87, 8.15, repro,
2006-01-04,2.44, -2.92, -17.84, 2.32, 1.79, 7.63, repro,
2006-01-05,3.36, -3.35, -24.78, 2.28, 1.73, 7.60, repro,
2006-01-06,1.01, -1.21, -18.10, 2.38, 1.82, 8.04, repro,
2006-01-07,3.11, -1.47, -10.21, 2.23, 1.66, 7.32, repro,
2006-01-08,1.62, -0.69, -11.90, 2.23, 1.68, 7.37, repro,
2006-01-09,1.54, -1.35, -6.79, 2.29, 1.76, 7.71, repro,
2006-01-10,1.06, -2.24, -15.92, 2.33, 1.76, 7.78, repro,
2006-01-11,2.90, -1.57, -6.13, 2.30, 1.72, 7.53, repro,
2006-01-12,1.87, -0.90, -13.90, 2.23, 1.66, 7.32, repro,
2006-01-13,1.45, -0.13, -11.82, 2.34, 1.77, 7.91, repro,
2006-01-14,0.60, -2.63, -12.18, 2.18, 1.59, 7.09, repro,
2006-01-15,1.23, -1.50, -9.48, 2.21, 1.61, 7.22, repro,
2006-01-16,2.83, -1.56, -15.30, 2.34, 1.80, 7.72, repro,
2006-01-17,0.92, -0.96, -14.39, 2.27, 1.66, 7.37, repro,
2006-01-18,1.98, -1.57, -8.36, 2.20, 1.59, 7.13, repro,
2006-01-19,2.09, -1.89, -14.47, 2.22, 1.59, 7.28, repro,
2006-01-20,0.18, 0.01, -15.52, 2.24, 1.61, 7.37, repro,
2006-01-21,1.69, -0.06, -17.23, 2.22, 1.62, 7.22, repro,
2006-01-22,2.43, -0.83, -18.31, 2.23, 1.57, 7.13, repro,
2006-01-23,1.06, -0.32, -20.36, 2.20, 1.57, 7.10, repro,
2006-01-24,1.86, -1.29, -19.11, 2.24, 1.61, 7.21, repro,
2006-01-25,0.50, -1.56, -20.25, 2.11, 1.53, 6.92, repro,
2006-01-26,2.38, -1.51, -18.22, 2.14, 1.53, 6.94, repro,
2006-01-27,2.14, -0.88, -21.45, 2.16, 1.53, 6.98, repro,
2006-01-28,0.41, -2.05, -18.74, 2.17, 1.56, 7.11, repro,
2006-01-29,1.03, -0.73, -18.24, 2.15, 1.54, 7.04, repro,
2006-01-30,0.19, -1.52, -13.53, 2.13, 1.52, 6.96, repro,
2006-01-31,1.46, -1.92, -17.32, 2.15, 1.54, 7.05, repro,
2006-02-01,-0.24, -1.47, -10.40, 2.16, 1.53, 7.03, repro,
2006-02-02,0.38, -1.06, -8.96, 2.15, 1.53, 7.03, repro,
2006-02-03,0.29, -1.31, -8.85, 2.14, 1.52, 6.96, repro,
2006-02-04,0.24, -0.72, -16.54, 2.15, 1.55, 7.13, repro,
2006-02-05,1.40, -1.09, -16.57, 2.16, 1.53, 7.06, repro,
2006-02-06,0.18, -0.93, -22.41, 2.18, 1.53, 7.13, repro,
2006-02-07,1.48, -1.22, -21.89, 2.17, 1.53, 7.07, repro,
2006-02-08,1.50, -0.26, -22.80, 2.16, 1.53, 7.08, repro,
2006-02-09,1.04, -1.42, -24.69, 2.21, 1.54, 7.13, repro,
2006-02-10,0.16, -0.51, -22.60, 2.28, 1.57, 7.25, repro,
2006-02-11,0.71, 0.08, -26.24, 2.16, 1.52, 7.08, repro,
2006-02-12,0.65, -0.85, -23.56, 2.16, 1.52, 7.05, repro,
2006-02-13,-0.67, -0.50, -19.62, 2.15, 1.51, 7.01, repro,
2006-02-14,-0.76, -0.35, -15.07, 2.14, 1.51, 7.01, repro,
2006-02-15,1.35, -0.50, -16.07, 2.15, 1.50, 7.03, repro,
2006-02-16,0.83, -0.16, -19.43, 2.18, 1.52, 7.11, repro,
2006-02-17,0.98, -0.99, -20.22, 2.17, 1.54, 7.10, repro,
2006-02-18,0.43, -0.80, -16.06, 2.18, 1.54, 7.08, repro,
2006-02-19,0.85, 0.08, -10.62, 2.17, 1.52, 7.04, repro,
2006-02-20,1.96, -2.78, -8.13, 4.45, 2.93, 13.90, repro,
2006-02-23,-0.89, 1.87, -11.14, 5.29, 3.97, 16.52, repro,
2006-02-24,1.07, 0.02, -18.42, 2.18, 1.53, 7.11, repro,
2006-02-25,1.39, 0.65, -17.57, 2.16, 1.53, 7.10, repro,
2006-02-26,2.30, -0.80, -12.68, 2.17, 1.53, 7.14, repro,
2006-02-27,2.11, -2.12, -4.42, 2.17, 1.52, 7.06, repro,
2006-02-28,-0.41, -1.06, -7.86, 2.22, 1.55, 7.24, repro,
2006-03-01,0.09, -0.87, -14.98, 2.30, 1.60, 7.42, repro,
2006-03-02,2.24, 0.09, -12.59, 2.17, 1.54, 7.14, repro,
2006-03-03,-0.15, -0.32, -13.39, 2.24, 1.55, 7.32, repro,
2006-03-04,0.79, -0.19, -14.94, 2.15, 1.53, 7.04, repro,
2006-03-05,2.19, -1.08, -8.50, 2.17, 1.53, 7.11, repro,
2006-03-06,1.67, -2.45, -8.29, 2.18, 1.55, 7.17, repro,
2006-03-07,1.29, -0.30, -12.98, 2.17, 1.54, 7.10, repro,
2006-03-08,0.37, -0.46, -11.75, 2.15, 1.55, 7.12, repro,
2006-03-09,-0.45, 1.72, -2.07, 2.15, 1.54, 7.07, repro,
2006-03-10,0.59, 0.40, -5.75, 2.16, 1.53, 7.10, repro,
2006-03-11,0.77, -1.30, -7.11, 2.20, 1.54, 7.20, repro,
2006-03-12,-0.03, -0.22, -9.58, 2.21, 1.54, 7.16, repro,
2006-03-13,0.63, -0.32, -15.58, 2.20, 1.55, 7.17, repro,
2006-03-14,0.87, -0.29, -16.07, 2.19, 1.56, 7.20, repro,
2006-03-15,-0.32, -0.20, -13.19, 2.20, 1.55, 7.17, repro,
2006-03-16,1.09, -0.94, -18.37, 2.26, 1.58, 7.37, repro,
2006-03-17,-0.75, -1.77, -14.83, 2.28, 1.60, 7.45, repro,
2006-03-18,-0.58, -0.25, -16.94, 2.19, 1.56, 7.18, repro,
2006-03-19,-0.24, -0.87, -18.86, 2.18, 1.57, 7.25, repro,
2006-03-20,1.00, -0.85, -13.18, 2.20, 1.58, 7.30, repro,
2006-03-21,0.90, -0.71, -11.82, 2.20, 1.57, 7.28, repro,
2006-03-22,1.04, -0.77, -17.47, 2.20, 1.58, 7.31, repro,
2006-03-23,1.29, -0.16, -16.17, 2.25, 1.60, 7.32, repro,
2006-03-24,1.46, -2.56, -6.91, 2.25, 1.59, 7.28, repro,
2006-03-25,-0.64, -0.23, -9.54, 2.26, 1.60, 7.36, repro,
2006-03-26,2.02, -0.92, -16.05, 2.23, 1.59, 7.30, repro,
2006-03-27,-0.15, -0.70, -10.82, 2.25, 1.60, 7.35, repro,
2006-03-28,0.02, -1.51, -4.19, 2.18, 1.62, 7.25, repro,
2006-03-29,0.60, -0.87, -3.31, 2.13, 1.56, 7.07, repro,
2006-03-30,1.28, -0.59, -8.72, 2.12, 1.55, 7.05, repro,
2006-03-31,0.96, -1.15, -11.31, 2.12, 1.55, 7.06, repro,
2006-04-01,0.60, -1.28, -11.83, 2.10, 1.54, 7.01, repro,
2006-04-02,0.93, -0.63, -14.26, 2.11, 1.56, 7.06, repro,
2006-04-03,0.64, -1.03, -9.59, 2.15, 1.60, 7.23, repro,
2006-04-04,0.14, -0.94, -5.94, 2.13, 1.57, 7.14, repro,
2006-04-05,0.36, -0.72, -3.21, 2.18, 1.60, 7.28, repro,
2006-04-06,0.10, -0.55, -10.15, 2.18, 1.60, 7.34, repro,
2006-04-07,0.60, -0.51, -11.77, 2.23, 1.59, 7.38, repro,
2006-04-08,1.44, -1.61, -16.05, 2.26, 1.61, 7.47, repro,
2006-04-09,0.92, -0.72, -12.62, 2.11, 1.56, 7.07, repro,
2006-04-10,1.25, -0.33, -10.23, 2.11, 1.55, 7.08, repro,
2006-04-11,2.20, -1.55, -5.83, 2.18, 1.59, 7.37, repro,
2006-04-12,1.08, -0.50, -10.73, 2.18, 1.58, 7.34, repro,
2006-04-13,-0.95, -1.43, -9.79, 2.10, 1.56, 7.10, repro,
2006-04-14,-0.45, -0.87, -4.02, 2.11, 1.56, 7.11, repro,
2006-04-15,0.67, -1.31, 1.55, 2.17, 1.58, 7.26, repro,
2006-04-16,1.69, -2.13, 0.46, 2.12, 1.56, 7.14, repro,
2006-04-17,1.38, -0.17, -9.95, 2.12, 1.55, 7.12, repro,
2006-04-18,1.46, -0.20, -17.21, 2.11, 1.54, 7.06, repro,
2006-04-19,-0.32, -0.02, -13.51, 2.11, 1.55, 7.11, repro,
2006-04-20,0.90, -0.91, -7.62, 2.16, 1.60, 7.30, repro,
2006-04-21,1.50, -1.19, -13.22, 2.14, 1.56, 7.20, repro,
2006-04-22,1.50, -0.41, -11.12, 2.12, 1.55, 7.12, repro,
2006-04-23,1.35, -0.03, -13.15, 2.14, 1.59, 7.22, repro,
2006-04-24,1.21, -1.01, -10.01, 2.14, 1.59, 7.23, repro,
2006-04-25,0.61, -0.63, -11.52, 2.16, 1.59, 7.25, repro,
2006-04-26,0.42, 0.95, -10.23, 2.17, 1.59, 7.24, repro,
2006-04-27,0.24, -0.60, -15.88, 2.23, 1.61, 7.37, repro,
2006-04-28,0.91, -0.09, -11.70, 2.16, 1.55, 7.13, repro,
2006-04-29,0.62, -0.69, -14.07, 2.12, 1.55, 7.12, repro,
2006-04-30,1.18, -0.06, -8.78, 2.12, 1.55, 7.14, repro,
2006-05-01,0.74, 0.22, -10.30, 2.13, 1.54, 7.11, repro,
2006-05-02,1.16, 0.01, -12.43, 2.12, 1.54, 7.13, repro,
2006-05-03,0.90, -0.52, -7.64, 2.12, 1.55, 7.13, repro,
2006-05-04,1.25, -1.13, -10.48, 2.11, 1.54, 7.08, repro,
2006-05-05,0.76, -0.63, -11.12, 2.13, 1.56, 7.17, repro,
2006-05-06,1.23, -0.85, -7.18, 2.12, 1.54, 7.11, repro,
2006-05-07,0.62, -1.40, -3.55, 2.11, 1.55, 7.10, repro,
2006-05-08,1.63, -0.34, -16.28, 2.13, 1.55, 7.19, repro,
2006-05-09,1.18, -0.07, -11.13, 2.16, 1.57, 7.17, repro,
2006-05-10,1.12, -0.65, -12.97, 2.10, 1.55, 7.11, repro,
2006-05-11,0.36, -1.14, -11.25, 2.12, 1.55, 7.13, repro,
2006-05-12,0.02, 0.32, -7.11, 2.12, 1.55, 7.14, repro,
2006-05-13,1.74, 0.01, -15.30, 2.15, 1.56, 7.27, repro,
2006-05-14,1.77, 0.37, -14.27, 2.11, 1.54, 7.17, repro,
2006-05-15,2.07, -0.44, -11.69, 2.10, 1.54, 7.10, repro,
2006-05-16,0.98, -0.23, -13.75, 2.13, 1.58, 7.29, repro,
2006-05-17,0.33, -0.96, -4.50, 2.12, 1.58, 7.27, repro,
2006-05-18,-0.00, -0.44, -8.35, 2.15, 1.56, 7.21, repro,
2006-05-19,1.83, -1.55, -2.07, 2.19, 1.58, 7.31, repro,
2006-05-20,0.42, -0.58, -6.92, 2.18, 1.57, 7.23, repro,
2006-05-21,0.87, -1.17, 0.69, 2.21, 1.60, 7.40, repro,
2006-05-22,1.43, -1.58, 2.27, 2.20, 1.62, 7.41, repro,
2006-05-23,0.82, -0.88, -2.34, 2.18, 1.59, 7.26, repro,
2006-05-24,0.47, 0.56, -12.67, 2.20, 1.59, 7.35, repro,
2006-05-25,2.26, -0.64, -16.32, 2.29, 1.64, 7.61, repro,
2006-05-26,1.53, -0.05, -8.70, 2.24, 1.62, 7.51, repro,
2006-05-27,1.23, -0.36, -6.28, 2.17, 1.57, 7.23, repro,
2006-05-28,1.18, -1.03, -8.25, 2.17, 1.57, 7.22, repro,
2006-05-29,1.45, 0.32, -7.65, 2.21, 1.60, 7.35, repro,
2006-05-30,1.23, -0.07, -15.04, 2.25, 1.62, 7.51, repro,
2006-05-31,0.89, -1.44, -11.44, 2.19, 1.58, 7.30, repro,
2006-06-01,1.73, -0.43, -18.02, 2.23, 1.63, 7.53, repro,
2006-06-02,2.17, -1.77, -20.95, 2.39, 1.71, 8.01, repro,
2006-06-03,0.20, -0.46, -5.61, 2.28, 1.64, 7.56, repro,
2006-06-04,1.35, -0.42, -2.66, 2.28, 1.62, 7.60, repro,
2006-06-05,0.02, -0.57, -8.22, 2.25, 1.59, 7.43, repro,
2006-06-06,0.53, 0.26, -4.50, 2.23, 1.61, 7.46, repro,
2006-06-07,0.37, 0.33, -13.99, 2.23, 1.60, 7.39, repro,
2006-06-08,1.03, -0.42, -9.40, 2.17, 1.57, 7.18, repro,
2006-06-09,-0.73, 0.14, -7.89, 2.17, 1.58, 7.20, repro,
2006-06-10,1.18, -0.27, -9.80, 2.20, 1.58, 7.27, repro,
2006-06-11,1.56, -0.88, -3.56, 2.18, 1.58, 7.27, repro,
2006-06-12,2.71, -1.30, -7.13, 2.23, 1.62, 7.46, repro,
2006-06-13,1.70, -0.24, -11.80, 2.24, 1.60, 7.39, repro,
2006-06-14,0.21, -0.17, -6.63, 2.16, 1.57, 7.14, repro,
2006-06-15,-0.00, 0.08, -1.88, 2.17, 1.58, 7.24, repro,
2006-06-16,0.62, -0.82, 0.33, 2.19, 1.60, 7.33, repro,
2006-06-17,2.90, -0.37, -9.69, 2.15, 1.58, 7.22, repro,
2006-06-18,-0.60, -0.05, -3.56, 2.20, 1.62, 7.47, repro,
2006-06-19,-0.16, 1.05, -11.05, 2.20, 1.62, 7.43, repro,
2006-06-20,-1.94, 0.94, -0.27, 2.18, 1.62, 7.43, repro,
2006-06-21,0.20, 0.18, -5.43, 2.21, 1.63, 7.51, repro,
2006-06-22,0.50, 0.14, -14.55, 2.20, 1.63, 7.48, repro,
2006-06-23,0.78, 0.61, -16.37, 2.23, 1.63, 7.53, repro,
2006-06-24,1.12, 0.46, -11.42, 2.19, 1.61, 7.40, repro,
2006-06-25,0.67, -0.07, -14.43, 2.19, 1.62, 7.44, repro,
2006-06-26,-1.10, 0.92, -8.64, 2.20, 1.63, 7.48, repro,
2006-06-27,0.21, 0.47, -2.42, 2.20, 1.63, 7.52, repro,
2006-06-28,0.38, 0.15, -4.52, 2.21, 1.63, 7.49, repro,
2006-06-29,0.20, -2.31, -2.08, 2.18, 1.61, 7.55, repro,
2006-06-30,0.05, -0.02, -6.61, 2.18, 1.59, 7.40, repro,
2006-07-01,-0.21, -0.20, -6.66, 2.18, 1.60, 7.47, repro,
2006-07-02,1.00, -1.51, -8.48, 2.20, 1.64, 7.55, repro,
2006-07-03,-1.04, -0.15, -14.72, 2.20, 1.59, 7.42, repro,
2006-07-04,0.06, -0.43, -10.10, 2.20, 1.59, 7.39, repro,
2006-07-05,0.65, -0.13, -12.76, 2.18, 1.58, 7.36, repro,
2006-07-06,1.66, -0.48, -16.48, 2.16, 1.58, 7.37, repro,
2006-07-07,1.10, -0.53, -13.94, 2.18, 1.59, 7.41, repro,
2006-07-08,0.10, 1.68, -16.25, 2.17, 1.60, 7.43, repro,
2006-07-09,-0.64, -0.21, -10.20, 2.19, 1.59, 7.41, repro,
2006-07-10,1.18, -1.05, -9.06, 2.17, 1.59, 7.39, repro,
2006-07-11,1.98, -1.41, -1.77, 2.16, 1.57, 7.38, repro,
2006-07-12,0.53, 0.20, -12.91, 2.22, 1.65, 7.74, repro,
2006-07-13,1.89, 0.13, -7.46, 2.16, 1.59, 7.41, repro,
2006-07-14,1.14, 0.48, -3.38, 2.16, 1.59, 7.40, repro,
2006-07-15,1.62, -0.37, -8.78, 2.17, 1.58, 7.39, repro,
2006-07-16,1.52, -0.50, -4.95, 2.16, 1.58, 7.38, repro,
2006-07-17,0.96, 0.08, -9.43, 2.19, 1.63, 7.59, repro,
2006-07-18,1.85, -0.63, -2.89, 2.10, 1.56, 7.19, repro,
2006-07-19,1.74, -0.88, -6.77, 2.12, 1.56, 7.19, repro,
2006-07-20,0.55, -0.87, -3.89, 2.12, 1.55, 7.15, repro,
2006-07-21,2.90, -1.08, -5.52, 2.11, 1.56, 7.19, repro,
2006-07-22,0.12, -0.45, 2.79, 2.12, 1.55, 7.14, repro,
2006-07-23,0.81, 1.16, -2.42, 2.14, 1.60, 7.27, repro,
2006-07-24,1.64, 0.32, -1.91, 2.12, 1.56, 7.21, repro,
2006-07-25,-1.44, -0.21, 0.79, 2.11, 1.56, 7.16, repro,
2006-07-26,0.67, -0.64, -1.13, 2.11, 1.55, 7.15, repro,
2006-07-27,1.95, 0.41, -7.73, 2.10, 1.55, 7.08, repro,
2006-07-28,2.13, -0.80, -2.26, 2.10, 1.55, 7.10, repro,
2006-07-29,1.45, -1.26, -4.60, 2.11, 1.56, 7.17, repro,
2006-07-30,3.06, -0.24, 1.58, 2.16, 1.62, 7.39, repro,
2006-07-31,1.04, 0.50, -1.12, 2.11, 1.56, 7.21, repro,
2006-08-01,2.38, -0.12, -2.66, 2.11, 1.55, 7.17, repro,
2006-08-02,0.88, -0.09, 0.63, 2.13, 1.60, 7.39, repro,
2006-08-03,0.89, -0.10, -11.57, 2.12, 1.60, 7.36, repro,
2006-08-04,1.96, -0.22, -4.63, 2.23, 1.66, 7.65, repro,
2006-08-05,2.23, -0.36, 1.16, 2.22, 1.67, 7.70, repro,
2006-08-06,2.46, -0.82, -2.91, 2.14, 1.61, 7.46, repro,
2006-08-07,2.67, 0.66, -5.71, 2.15, 1.61, 7.49, repro,
2006-08-08,1.53, -0.45, -8.97, 2.11, 1.57, 7.21, repro,
2006-08-09,2.73, 0.28, -10.12, 2.13, 1.58, 7.28, repro,
2006-08-10,1.45, -0.03, -0.54, 2.12, 1.57, 7.23, repro,
2006-08-11,1.41, -0.25, -5.28, 2.12, 1.56, 7.22, repro,
2006-08-12,0.70, 0.37, -3.80, 2.11, 1.56, 7.15, repro,
2006-08-13,-0.22, -1.08, -3.54, 2.14, 1.61, 7.28, repro,
2006-08-14,0.00, 0.17, -1.44, 2.14, 1.62, 7.32, repro,
2006-08-15,0.94, 0.57, -4.25, 2.19, 1.59, 7.31, repro,
2006-08-16,0.50, 0.18, 1.48, 2.11, 1.57, 7.19, repro,
2006-08-17,2.14, -0.36, -9.15, 2.11, 1.56, 7.14, repro,
2006-08-18,-0.27, -0.14, -5.57, 2.18, 1.65, 7.42, repro,
2006-08-19,0.70, -0.17, -1.71, 2.11, 1.56, 7.19, repro,
2006-08-20,1.11, -0.04, 1.40, 2.10, 1.56, 7.15, repro,
2006-08-21,0.41, -0.71, 2.52, 2.13, 1.59, 7.25, repro,
2006-08-22,0.80, -0.79, -4.32, 2.12, 1.58, 7.28, repro,
2006-08-23,1.45, -0.92, 4.66, 2.12, 1.58, 7.27, repro,
2006-08-24,0.75, 1.19, 1.70, 2.09, 1.57, 7.15, repro,
2006-08-25,-1.05, 0.34, 2.22, 2.12, 1.62, 7.44, repro,
2006-08-26,-0.95, -1.49, 5.72, 2.18, 1.66, 7.64, repro,
2006-08-27,1.68, -0.76, -2.93, 2.19, 1.67, 7.64, repro,
2006-08-28,1.81, -0.78, 4.73, 2.19, 1.67, 7.64, repro,
2006-08-29,1.42, 0.12, -1.90, 2.19, 1.67, 7.65, repro,
2006-08-30,0.41, -0.12, 0.36, 2.18, 1.67, 7.66, repro,
2006-08-31,0.93, -0.53, -0.46, 2.18, 1.69, 7.71, repro,
2006-09-01,1.20, -1.46, -10.04, 2.18, 1.67, 7.64, repro,
2006-09-02,1.17, -0.79, -5.14, 2.18, 1.68, 7.68, repro,
2006-09-03,1.51, -0.72, -5.83, 2.20, 1.68, 7.70, repro,
2006-09-04,1.01, 0.42, -8.00, 2.27, 1.69, 7.81, repro,
2006-09-05,1.20, -0.13, -12.96, 2.28, 1.70, 7.87, repro,
2006-09-06,1.43, -1.01, -8.66, 2.22, 1.68, 7.76, repro,
2006-09-07,1.95, -0.92, -1.05, 2.23, 1.72, 7.91, repro,
2006-09-08,2.66, -1.72, -3.61, 2.30, 1.80, 8.20, repro,
2006-09-09,0.70, -2.65, -1.30, 2.16, 1.63, 7.42, repro,
2006-09-10,2.12, -0.26, -2.77, 2.16, 1.64, 7.46, repro,
2006-09-11,1.04, -0.84, -2.38, 2.19, 1.64, 7.51, repro,
2006-09-12,0.42, -1.32, -1.74, 2.16, 1.63, 7.40, repro,
2006-09-13,1.22, -1.93, -2.44, 2.15, 1.63, 7.38, repro,
2006-09-14,-0.72, -4.82, 3.04, 2.23, 1.65, 7.51, repro,
2006-09-15,3.61, -1.60, 2.32, 2.22, 1.65, 7.49, repro,
2006-09-16,1.25, -1.96, 1.46, 2.12, 1.60, 7.30, repro,
2006-09-17,0.43, -1.09, -2.17, 2.12, 1.58, 7.24, repro,
2006-09-18,1.15, -0.90, 1.90, 2.12, 1.60, 7.31, repro,
2006-09-19,1.17, -1.75, -3.85, 2.11, 1.58, 7.23, repro,
2006-09-20,1.37, -1.74, -3.09, 2.17, 1.63, 7.44, repro,
2006-09-21,-1.95, -1.34, 4.76, 2.16, 1.64, 7.45, repro,
2006-09-22,0.80, -1.81, 2.42, 2.22, 1.67, 7.59, repro,
2006-09-23,0.97, -2.09, 1.05, 2.19, 1.64, 7.48, repro,
2006-09-24,1.67, -0.66, -6.48, 2.22, 1.63, 7.38, repro,
2006-09-25,1.72, -0.76, -0.92, 2.19, 1.60, 7.32, repro,
2006-09-26,0.57, -1.01, -6.01, 2.19, 1.60, 7.32, repro,
2006-09-27,1.23, -0.83, -3.39, 2.20, 1.64, 7.49, repro,
2006-09-28,1.02, -0.72, 3.49, 2.19, 1.63, 7.35, repro,
2006-09-29,0.73, -1.08, 1.91, 2.14, 1.61, 7.31, repro,
2006-09-30,2.01, -1.13, -1.60, 2.19, 1.65, 7.58, repro,
2006-10-01,1.89, -1.26, -1.34, 2.16, 1.61, 7.36, repro,
2006-10-02,2.92, -2.63, -2.89, 2.20, 1.67, 7.50, repro,
2006-10-03,0.53, -0.71, 3.58, 2.25, 1.71, 7.75, repro,
2006-10-04,1.87, -2.14, 1.64, 2.15, 1.60, 7.31, repro,
2006-10-05,2.62, -1.31, 3.73, 2.14, 1.61, 7.34, repro,
2006-10-06,2.68, -1.40, -7.75, 2.15, 1.60, 7.34, repro,